{"data":{"norad_id":66462,"intl_designator":"2025-262G","name":"STARLINK-35499","alt_names":[],"object_type":"PAYLOAD","status":"ACTIVE","operator":null,"country":"US","launch_date":"2025-11-15","launch_site_code":"AFETR","launch_vehicle":null,"mission":null,"orbit_class":"UNKNOWN","rcs_meters":null,"size_class":null,"mass_kg":null,"dimensions":null,"purposes":["comms"],"wikipedia_slug":null,"has_3d_model":false,"image_url":null,"decayed_at":null,"tle_current":{"epoch":"2026-05-25T05:12:34.848000Z","epoch_age_seconds":59884,"freshness":"FRESH","line1":"1 66462U 25262G   26145.21707000  .00013221  00000+0  48891-3 0  9997","line2":"2 66462  42.9998 223.6974 0001306 254.3506 105.7201 15.27591956 30611","mean_motion":15.27591956,"eccentricity":0.0001306,"inclination_deg":42.9998,"raan_deg":223.6974,"arg_perigee_deg":254.3506,"mean_anomaly_deg":105.7201,"bstar":0.00048891,"rev_number":3061,"period_min":94.266010916334,"perigee_km":482.11722947939,"apogee_km":483.90936193662,"semimajor_km":6861.150295708,"source":"CELESTRAK","updated_at":"2026-05-25T13:38:21.215031Z"}}}